TimeCDT,TemperatureF,Dew PointF,Humidity,Sea Level PressureIn,VisibilityMPH,Wind Direction,Wind SpeedMPH,Gust SpeedMPH,PrecipitationIn,Events,Conditions,WindDirDegrees,DateUTC
12:13 AM,48.2,48.2,100,29.72,7.0,NNE,8.1,-,N/A,,Overcast,20,2012-10-14 05:13:00
12:32 AM,48.2,48.2,100,29.73,7.0,NNE,8.1,-,N/A,,Overcast,20,2012-10-14 05:32:00
12:53 AM,48.2,48.2,100,29.71,5.0,NNE,6.9,-,N/A,,Overcast,20,2012-10-14 05:53:00
1:13 AM,48.2,48.2,100,29.72,7.0,NNE,8.1,-,N/A,,Overcast,20,2012-10-14 06:13:00
1:32 AM,48.2,46.4,93,29.71,7.0,NNE,8.1,-,N/A,,Overcast,20,2012-10-14 06:32:00
1:53 AM,48.2,46.4,93,29.71,7.0,NNE,9.2,-,N/A,,Overcast,20,2012-10-14 06:53:00
2:32 AM,48.2,46.4,93,29.73,7.0,NNE,8.1,-,N/A,,Overcast,20,2012-10-14 07:32:00
2:53 AM,46.4,46.4,100,29.73,7.0,NNE,9.2,-,N/A,,Overcast,20,2012-10-14 07:53:00
3:13 AM,46.4,46.4,100,29.73,7.0,NNE,8.1,-,N/A,,Overcast,20,2012-10-14 08:13:00
3:32 AM,46.4,46.4,100,29.73,7.0,North,6.9,-,N/A,,Overcast,10,2012-10-14 08:32:00
3:53 AM,46.4,46.4,100,29.72,10.0,North,8.1,-,N/A,,Overcast,360,2012-10-14 08:53:00
4:13 AM,46.4,44.6,93,29.72,10.0,North,6.9,-,N/A,,Overcast,360,2012-10-14 09:13:00
4:32 AM,46.4,44.6,93,29.72,10.0,North,8.1,-,N/A,,Overcast,10,2012-10-14 09:32:00
4:53 AM,46.4,44.6,93,29.72,10.0,North,9.2,-,N/A,,Overcast,360,2012-10-14 09:53:00
5:13 AM,46.4,44.6,93,29.72,10.0,North,6.9,-,N/A,,Mostly Cloudy,350,2012-10-14 10:13:00
5:32 AM,46.4,44.6,93,29.72,10.0,North,5.8,-,N/A,,Overcast,360,2012-10-14 10:32:00
5:53 AM,46.4,44.6,93,29.71,10.0,North,6.9,-,N/A,,Scattered Clouds,350,2012-10-14 10:53:00
6:13 AM,46.4,44.6,93,29.71,10.0,North,8.1,-,N/A,,Clear,350,2012-10-14 11:13:00
6:32 AM,46.4,44.6,93,29.70,10.0,North,8.1,-,N/A,,Clear,360,2012-10-14 11:32:00
6:52 AM,46.4,44.6,93,29.71,10.0,North,9.2,-,N/A,,Mostly Cloudy,360,2012-10-14 11:52:00
7:13 AM,46.4,44.6,93,29.71,10.0,North,10.4,19.6,N/A,,Overcast,10,2012-10-14 12:13:00
7:32 AM,46.4,44.6,93,29.73,10.0,North,13.8,19.6,N/A,,Overcast,360,2012-10-14 12:32:00
7:52 AM,46.4,44.6,93,29.73,10.0,North,9.2,-,N/A,,Overcast,350,2012-10-14 12:52:00
8:13 AM,46.4,44.6,93,29.73,10.0,North,10.4,16.1,N/A,,Overcast,360,2012-10-14 13:13:00
8:33 AM,46.4,44.6,93,29.73,10.0,North,12.7,-,N/A,,Overcast,360,2012-10-14 13:33:00
8:52 AM,44.6,42.8,93,29.74,10.0,North,11.5,17.3,N/A,,Overcast,360,2012-10-14 13:52:00
9:13 AM,44.6,42.8,93,29.75,7.0,North,11.5,16.1,N/A,,Overcast,350,2012-10-14 14:13:00
9:33 AM,44.6,42.8,93,29.75,10.0,North,11.5,19.6,N/A,,Overcast,350,2012-10-14 14:33:00
9:52 AM,44.6,42.8,93,29.75,7.0,NNW,13.8,18.4,N/A,,Overcast,340,2012-10-14 14:52:00
10:13 AM,44.6,42.8,93,29.74,7.0,North,12.7,19.6,N/A,,Overcast,350,2012-10-14 15:13:00
10:33 AM,44.6,42.8,93,29.75,7.0,NNW,12.7,-,N/A,,Overcast,340,2012-10-14 15:33:00
10:52 AM,44.6,42.8,93,29.75,7.0,NNW,10.4,-,N/A,,Overcast,330,2012-10-14 15:52:00
11:13 AM,44.6,42.8,93,29.75,7.0,NNW,13.8,-,N/A,,Overcast,340,2012-10-14 16:13:00
11:32 AM,44.6,42.8,93,29.75,7.0,NNW,16.1,21.9,N/A,,Overcast,330,2012-10-14 16:32:00
11:53 AM,46.4,42.8,87,29.75,7.0,NNW,18.4,21.9,N/A,,Mostly Cloudy,330,2012-10-14 16:53:00
12:12 PM,46.4,42.8,87,29.76,10.0,NNW,15.0,-,N/A,,Mostly Cloudy,340,2012-10-14 17:12:00
12:33 PM,48.2,42.8,82,29.75,10.0,NNW,16.1,21.9,N/A,,Mostly Cloudy,340,2012-10-14 17:33:00
12:53 PM,48.2,42.8,82,29.75,10.0,NNW,12.7,17.3,N/A,,Mostly Cloudy,340,2012-10-14 17:53:00
1:12 PM,50.0,41.0,71,29.75,10.0,NNW,12.7,-,N/A,,Scattered Clouds,330,2012-10-14 18:12:00
1:33 PM,51.8,41.0,67,29.76,10.0,NNW,12.7,24.2,N/A,,Scattered Clouds,340,2012-10-14 18:33:00
1:53 PM,53.6,39.2,58,29.75,10.0,NNW,15.0,20.7,N/A,,Clear,330,2012-10-14 18:53:00
2:12 PM,53.6,37.4,54,29.75,10.0,NNW,16.1,23.0,N/A,,Unknown,330,2012-10-14 19:12:00
2:33 PM,55.4,35.6,47,29.75,10.0,NNW,19.6,24.2,N/A,,Unknown,340,2012-10-14 19:33:00
3:12 PM,55.4,33.8,44,29.75,10.0,North,15.0,24.2,N/A,,Unknown,350,2012-10-14 20:12:00
3:33 PM,55.4,33.8,44,29.76,10.0,NNW,12.7,24.2,N/A,,Clear,340,2012-10-14 20:33:00
3:53 PM,55.4,30.2,38,29.76,10.0,NNW,18.4,25.3,N/A,,Clear,340,2012-10-14 20:53:00
4:12 PM,55.4,30.2,38,29.77,10.0,North,16.1,-,N/A,,Clear,360,2012-10-14 21:12:00
4:33 PM,55.4,30.2,38,29.77,10.0,NNW,15.0,25.3,N/A,,Clear,330,2012-10-14 21:33:00
4:53 PM,55.4,30.2,38,29.78,10.0,North,12.7,-,N/A,,Clear,350,2012-10-14 21:53:00
5:12 PM,55.4,33.8,44,29.78,10.0,NW,15.0,18.4,N/A,,Clear,320,2012-10-14 22:12:00
5:33 PM,55.4,33.8,44,29.79,10.0,NW,13.8,18.4,N/A,,Clear,320,2012-10-14 22:33:00
5:53 PM,53.6,33.8,47,29.81,10.0,NW,15.0,21.9,N/A,,Clear,310,2012-10-14 22:53:00
6:12 PM,53.6,33.8,47,29.81,10.0,NW,16.1,19.6,N/A,,Clear,320,2012-10-14 23:12:00
6:33 PM,51.8,33.8,50,29.82,10.0,NNW,8.1,-,N/A,,Clear,330,2012-10-14 23:33:00
6:53 PM,48.2,33.8,58,29.83,10.0,NW,5.8,-,N/A,,Scattered Clouds,310,2012-10-14 23:53:00
7:12 PM,48.2,33.8,58,29.83,10.0,WNW,5.8,-,N/A,,Overcast,300,2012-10-15 00:12:00
7:33 PM,48.2,35.6,62,29.83,10.0,WNW,5.8,-,N/A,,Unknown,300,2012-10-15 00:33:00
7:52 PM,46.4,33.8,62,29.83,10.0,WNW,4.6,-,N/A,,Unknown,300,2012-10-15 00:52:00
8:13 PM,46.4,33.8,62,29.84,10.0,WNW,4.6,-,N/A,,Unknown,290,2012-10-15 01:13:00
8:33 PM,46.4,35.6,66,29.84,10.0,West,5.8,-,N/A,,Unknown,280,2012-10-15 01:33:00
8:52 PM,46.4,35.6,66,29.85,10.0,WNW,5.8,-,N/A,,Unknown,290,2012-10-15 01:52:00
9:13 PM,46.4,35.6,66,29.85,10.0,West,4.6,-,N/A,,Unknown,280,2012-10-15 02:13:00
9:33 PM,46.4,35.6,66,29.85,10.0,West,4.6,-,N/A,,Unknown,270,2012-10-15 02:33:00
9:52 PM,46.4,35.6,66,29.86,10.0,West,5.8,-,N/A,,Unknown,280,2012-10-15 02:52:00
10:13 PM,46.4,35.6,66,29.86,10.0,West,5.8,-,N/A,,Unknown,270,2012-10-15 03:13:00
10:33 PM,46.4,37.4,71,29.86,10.0,West,4.6,-,N/A,,Unknown,270,2012-10-15 03:33:00
10:52 PM,46.4,37.4,71,29.86,10.0,West,6.9,-,N/A,,Scattered Clouds,270,2012-10-15 03:52:00
11:13 PM,46.4,37.4,71,29.87,10.0,West,5.8,-,N/A,,Unknown,270,2012-10-15 04:13:00
11:33 PM,44.6,37.4,76,29.87,10.0,West,8.1,-,N/A,,Unknown,280,2012-10-15 04:33:00
11:52 PM,44.6,37.4,76,29.88,10.0,West,6.9,-,N/A,,Unknown,280,2012-10-15 04:52:00